This is the latest recevied weather packets stored in our database for station/object KC5TIL-3. If no packets are shown the sender has not sent any weather packets the latest 10 day(s).
| Time | Temp. | Humidity | Pressure | Rain* | Wind** | Luminosity | Snow |
|---|---|---|---|---|---|---|---|
| 1788066061 | 31.67° C | 17% | 1012.8 hPa | 0 mm | 1.79 m/s, 190° | - | - |
| 1788065760 | 31.67° C | 17% | 1012.8 hPa | 0 mm | 1.79 m/s, 205° | - | - |
| 1788065461 | 31.67° C | 17% | 1012.8 hPa | 0 mm | 1.79 m/s, 216° | - | - |
| 1788065163 | 31.67° C | 15% | 1012.8 hPa | 0 mm | 1.79 m/s, 187° | - | - |
| 1788064862 | 32.22° C | 15% | 1012.8 hPa | 0 mm | 1.79 m/s, 220° | - | - |
| 1788064564 | 32.22° C | 15% | 1012.8 hPa | 0 mm | 1.34 m/s, 195° | - | - |
| 1788064266 | 32.22° C | 15% | 1012.8 hPa | 0 mm | 1.79 m/s, 142° | - | - |
| 1788063964 | 32.22° C | 15% | 1012.8 hPa | 0 mm | 2.24 m/s, 159° | - | - |
| 1788063657 | 32.22° C | 15% | 1012.8 hPa | 0 mm | 1.79 m/s, 187° | - | - |
| 1788063359 | 32.22° C | 15% | 1012.8 hPa | 0 mm | 1.79 m/s, 179° | - | - |
| 1788063057 | 32.22° C | 15% | 1012.8 hPa | 0 mm | 1.34 m/s, 125° | - | - |
| 1788062759 | 32.22° C | 14% | 1012.8 hPa | 0 mm | 1.79 m/s, 247° | - | - |
| 1788062461 | 32.22° C | 14% | 1011.8 hPa | 0 mm | 1.79 m/s, 155° | - | - |
| 1788062159 | 32.78° C | 14% | 1011.8 hPa | 0 mm | 1.79 m/s, 201° | - | - |
| 1788061861 | 32.78° C | 14% | 1011.8 hPa | 0 mm | 1.79 m/s, 126° | - | - |
| 1788061563 | 32.78° C | 14% | 1011.8 hPa | 0 mm | 2.68 m/s, 161° | - | - |
| 1788061262 | 32.78° C | 14% | 1011.8 hPa | 0 mm | 2.24 m/s, 171° | - | - |
| 1788060959 | 32.78° C | 14% | 1011.8 hPa | 0 mm | 1.79 m/s, 139° | - | - |
| 1788060661 | 32.78° C | 14% | 1011.8 hPa | 0 mm | 1.79 m/s, 168° | - | - |
| 1788060360 | 33.33° C | 14% | 1011.8 hPa | 0 mm | 2.24 m/s, 194° | - | - |
| 1788060062 | 33.33° C | 14% | 1011.8 hPa | 0 mm | 2.68 m/s, 138° | - | - |
| 1788059763 | 33.33° C | 14% | 1011.8 hPa | 0 mm | 2.24 m/s, 200° | - | - |
| 1788059462 | 33.33° C | 14% | 1011.8 hPa | 0 mm | 1.79 m/s, 129° | - | - |
| 1788059164 | 33.33° C | 12% | 1011.8 hPa | 0 mm | 2.24 m/s, 123° | - | - |
| 1788058866 | 33.33° C | 12% | 1011.8 hPa | 0 mm | 1.79 m/s, 144° | - | - |
* Rain latest hour (hover to see other rain measurements)
** Current wind speed in m/s (hover to see current wind gust speed)